User: anonymous   Login
Location: Steilacoom
(47.1700°N, 122.5700°W)
Time: 06:35:26
(UTC-08:00)
Language:

LilacSat-2 - Orbit

View from above orbital plane
View from above orbital plane
View from above satellite
View from above satellite

Ground track
Ground track

The orbit data is extracted from the following two-line orbital elements,

1 40908U 15049K   20022.18405995  .00000400  00000-0  25612-4 0  9991
2 40908  97.4869  23.9980 0016196 164.7190 261.1146 15.13940060239710
Epoch (UTC): 22 January 2020 04:25:02
Eccentricity: 0.0016196
inclination: 97.4869°
perigee height: 513 km
apogee height: 535 km
right ascension of ascending node: 23.9980°
argument of perigee: 164.7190°
revolutions per day: 15.13940060
mean anomaly at epoch: 261.1146°
orbit number at epoch: 23971

The dashed part of the orbit path shows where the satellite is in the earth's shadow,  

DLR